Flag for Malaysia Weather past 2 weeks in Kuala Lumpur, Malaysia

91 °F

Broken clouds.

Feels Like: 103 °F
Forecast: 75 / 91 °F
Wind: 8 mph from Southwest

Location: Sultan Abdul Aziz Shah-Subang

Current Time: Oct 9, 2015 at 3:05:20 PM

Latest Report: Oct 9, 2015 at 2:00 PM

Visibility: 4 mi

Pressure: 29.83 "Hg

Humidity: 59%

Dew point: 75 °F

Location of Kuala LumpurLocation

Historic Weather in Kuala Lumpur — Graph


Kuala Lumpur temperature yesterday

Maximum temperature yesterday: 91 °F (at 1:00 PM)
Minimum temperature yesterday: 75 °F (at 3:00 PM)
Average temperature yesterday: 81 °F

Past Weeks' High & Low Weather Summary

High93 °F (Oct 6, 2:00 PM)100% (Oct 8, 4:00 PM)29.98 "Hg (Oct 8, 4:00 PM)
Low73 °F (Sep 25, 6:00 AM)55% (Sep 25, 2:00 PM)29.71 "Hg (Sep 26, 5:00 PM)
Average82 °F81%29.86 "Hg
* Reported Sep 24 2:00 PM — Oct 9 2:00 PM, Kuala Lumpur, Weather by CustomWeather, © 2015

Note: Actual official high and low records may vary slightly from our data, if they occured in-between our weather recording intervals... More about our weather records


Kuala Lumpur weather history for previous 24 hours

Time TempWeatherWind HumidityBarometerVisibility
2:00 PM
Fri, Oct 9
91 °FBroken clouds.8 mph59%29.83 "Hg4 mi
1:00 PM91 °FBroken clouds.7 mph59%29.86 "Hg5 mi
12:00 PM90 °FBroken clouds.7 mph55%29.89 "Hg4 mi
11:00 AM88 °FPartly sunny.3 mph70%29.92 "Hg3 mi
10:00 AM86 °FPartly sunny.3 mph70%29.92 "Hg2 mi
9:00 AM82 °FPartly sunny.2 mph84%29.92 "Hg2 mi
8:00 AM77 °FBroken clouds.No wind94%29.89 "Hg2 mi
7:00 AM77 °FPartly cloudy.No wind94%29.86 "Hg1 mi
6:00 AM77 °FPartly cloudy.No wind94%29.86 "Hg1 mi
5:00 AM77 °FPartly cloudy.No wind94%29.86 "Hg1 mi
4:00 AM77 °FPartly cloudy.No wind94%29.86 "Hg1 mi
3:00 AM79 °FPartly cloudy.No wind89%29.86 "Hg1 mi
2:00 AM79 °FPartly cloudy.No wind89%29.86 "Hg1 mi
1:00 AM79 °FPartly cloudy.No wind94%29.89 "Hg1 mi
12:00 AM79 °FPassing clouds.No wind94%29.92 "Hg1 mi
11:00 PM
Thu, Oct 8
81 °FPartly cloudy.2 mph89%29.92 "Hg1 mi
10:00 PM81 °FPartly cloudy.3 mph89%29.89 "Hg1 mi
9:00 PM81 °FPartly cloudy.No wind89%29.86 "Hg2 mi
8:00 PM81 °FPartly sunny.2 mph89%29.83 "Hg2 mi
7:00 PM82 °FMore clouds than sun.2 mph84%29.83 "Hg3 mi
6:00 PM82 °FBroken clouds.2 mph79%29.80 "Hg3 mi
5:00 PM81 °FBroken clouds.2 mph84%29.80 "Hg3 mi
4:00 PM75 °FMore clouds than sun.2 mph100%29.83 "Hg3 mi
3:00 PM75 °FThunderstorms. More clouds than sun.10 mph94%29.86 "Hg1 mi
Weather by CustomWeather, © 2015

See weather overviewHow to use our weather pages